Location: *
(46.4000°N, 12.6667°E)
Time: 14:39:06
(UTC+00:00)

ISS - Pass Details

Date: 12 March 2021
Orbit: 418 x 422 km, 51.6° (Epoch: 17 April)

Event Time Altitude Azimuth Distance (km) Brightness Sun altitude
Exits shadow 03:15:33 25° 132° (SE) 886 -1.9 -23.2°
Drops below altitude 10° 03:17:06 10° 127° (SE) 1,493 -0.6 -23.0°
Sets 03:19:11 0° 125° (SE) 2,354 0.5 -22.7°
